OPS 4682 DEB, 38424

Orbit data source: Space-Track

OPS 4682 DEB, 38424 is space debris in LEO originally from a launch on Sat, 03 Apr 1965 UTC launched from the Air Force Western Test Range (AFWTR). Debris objects in space refer to the collection of defunct objects orbiting the Earth. Examples of debris include non-operational satellites, rocket bodies, and fragments generated from explosions, collisions, or faulty payload assembly.

Loading next visibility...
Identifier
38424, 1965-027ED
Orbit
LEO
Country
Flag of USUS
Related business
Manufacturer
Unknown
Mission
Spacecraft
Bus & Motor
Unknown
Mass
Unknown
Launch date (UTC)
1965-04-03 (61 years ago)
Launch vehicle
Unknown
Launch site
Air Force Western Test Range (AFWTR)
Object type
Payload
Rocket body
Debris
Shape & HBR
Unknown shape, 0.1 m
Radar Cross Section
Medium (>0.1 m² and <1 m²)

Expand to show TLE details & history
Last TLE update: 10 hours ago

TLE from 10 hours ago
0 OPS 4682 DEB
1 38424U 65027ED  26255.76613886  .00000981  00000-0  30535-2 0  9992
2 38424  90.2578   9.1782 0024665 278.3559  81.4770 13.04007376323245
Epoch: 2026-09-12T18:23Z
TLE epoch observation values (Epoch: 2026-09-12T18:23:14.397Z)
Latitude
0.00006°
Longitude
101.59778°
Altitude
1,246.573 km
Speed
7.233 km/s
True Right ascension
00h 36m 42s
True Declination
0° 00' 00"
Sunlit
Object was in full shadow at epoch
Visualization orbit readout
Latitude
Unknown
Longitude
Unknown
Altitude
Unknown
Speed
Unknown
Apparent Right ascension
Unknown
Apparent Declination
Unknown
Sunlit
N/A
Visualization observer readout
Local Sidereal Time
21:13:19
Azimuth
Unknown
Elevation
Unknown
Doppler factor
Unknown
Orbital elements
Apogee altitude
1,262.346 km
Perigee altitude
1,224.748 km
Semi-major axis
7,621.684 km
Eccentricity
0.00247
Inclination
90.2578°
RAAN
9.1782°
Arg. of periapsis
278.3559°
True anomaly
81.75665°
Mean anomaly
81.477°
Eccentric anomaly
81.61681°
Mean motion
3.26187 °/min
Orbital period
110.37 mins
BSTAR
0.0030535
Loading maneuver chart data...
Computing Atmospheric mass density...
Loading historical data...
Loading historical data...
Loading historical data...
Loading historical data...
Loading historical data...
Loading historical data...
Loading historical data...

Documentation

Showing up to 5 results
|